sat.trackr.live / text

‹ back to catalog

STARLINK-2453

NORAD 47845 · 2021-018BL

PAYLOAD ACTIVE UNKNOWN

§ Identity

Operator
Country
US
Launch date
2021-03-11
Launch site
AFETR
Launch vehicle
Mass (kg)
RCS (m²)

Purposes: comms

External: N2YO · Heavens-Above · Gunter

§ Orbital elements

Epoch: 2026-05-25T01:27:15.438240Z

Period
94.11 min
Inclination
53.1615°
Eccentricity
0.0001077
Mean motion
15.30197954 rev/d
Perigee alt
474.5 km
Apogee alt
476.0 km
Semi-major
6,853.4 km
B*
7.4197e-5
RAAN
263.3455°
Arg perigee
88.7797°
Mean anomaly
271.3327°
Rev number
28,819

§ Raw data

STARLINK-24531 47845U 21018BL  26145.06059535  .00001839  00000+0  74197-4 0  99932 47845  53.1615 263.3455 0001077  88.7797 271.3327 15.30197954288197

JSON: /api/v1/satellites/47845 · /tle

For live sub-satellite position, see the globe view (requires WebGL).

§ Visibility from observer

Set your observer location to see the next 7 days of passes ≥ 10°. The values pass through the URL so the page stays shareable.

No JS? Fill the form by hand. The geolocation button needs JavaScript.